Location: Bakov nad Jizerou
(50.4784°N, 14.9394°E)
Time: 09:16:27
(UTC+00:00)

Cosmos 1354 Rocket - Pass Details

Date: 16 June 2021
Orbit: 764 x 783 km, 74.0° (Epoch: 04 August)

Event Time Altitude Azimuth Distance (km) Brightness Sun altitude
Rises 22:23:10 0° 334° (NNW) 3,283 8.8 -15.7°
Reaches altitude 10° 22:25:34 10° 333° (NNW) 2,351 7.7 -15.7°
Maximum altitude 22:30:54 76° 249° (WSW) 811 4.0 -15.8°
Enters shadow 22:34:00 26° 167° (SSE) 1,515 4.9 -15.9°
